GFSNGP_250_rhum_330.txt.gz
RH
17 17 14 15 16 15 20 31 58 77 66 78 93 38 23 22 21 24 25 29 35 46 50 60 56 62 53 41 46 56 81 91 66 32 32 31 30 35 26 20 14 12 9 6
18 18 18 18 19 20 32 92 92 87 99 100 49 27 26 21 26 23 27 31 40 53 58 63 63 69 58 43 61 66 90 71 42 41 38 36 35 36 22 20 15 12 8 5
20 21 20 20 23 50 87 87 73 87 94 80 53 38 28 26 26 25 28 32 44 50 64 70 74 68 57 67 70 70 72 43 35 50 48 70 80 24 21 18 14 11 7 5
21 22 23 34 31 64 84 70 74 100 81 42 42 40 32 32 23 24 29 32 50 56 60 67 65 66 61 81 85 50 71 50 67 98 100 100 41 22 20 18 14 11 7 4
20 24 23 32 44 82 80 64 96 100 51 36 44 43 36 30 24 27 30 33 51 54 54 69 61 61 78 97 77 81 84 66 99 100 100 63 37 26 21 19 14 12 9 5
21 24 24 44 69 82 79 75 96 94 42 42 50 49 35 29 28 31 28 34 46 50 53 66 62 73 99 95 70 98 100 82 100 100 100 100 72 49 22 19 15 12 10 6
20 22 22 79 92 80 72 86 87 54 40 46 53 47 42 28 31 35 29 34 46 46 54 57 66 88 100 92 64 95 100 98 100 100 100 100 82 58 31 20 18 14 11 8
19 21 27 81 94 78 72 90 71 36 47 50 53 56 43 29 36 33 30 35 43 44 56 53 76 79 98 72 97 100 100 96 100 100 100 100 100 100 79 22 19 16 12 10
17 22 51 98 84 84 84 98 41 36 50 55 54 66 44 33 39 33 33 37 42 44 50 60 77 86 95 91 100 100 100 100 100 100 100 100 100 100 100 85 21 19 16 12
18 26 73 96 79 76 93 98 29 39 49 55 53 74 47 33 38 37 36 39 42 43 52 69 92 91 97 100 100 100 100 91 100 100 100 98 92 100 100 100 74 20 19 16
18 50 99 99 76 74 100 80 31 41 47 52 52 66 54 41 42 36 39 40 41 42 52 74 91 91 100 100 100 100 94 96 100 100 100 100 88 94 100 100 100 69 21 19
29 82 98 99 80 93 97 83 32 42 46 52 45 59 61 48 47 45 38 41 44 41 58 72 92 100 99 100 100 100 100 96 100 100 100 100 95 96 85 100 100 100 77 41
36 86 100 96 82 95 100 59 34 43 47 51 45 52 58 52 53 62 50 40 44 42 61 87 91 97 100 98 100 100 100 100 100 100 100 100 100 99 100 84 100 100 100 100
60 91 100 97 92 100 100 52 35 42 49 47 42 48 52 53 51 61 67 49 43 42 60 81 100 92 97 100 100 100 100 100 100 100 100 100 100 99 100 100 78 100 100 100
81 96 98 100 100 100 100 86 37 40 50 49 39 48 56 47 49 54 69 78 64 43 52 88 92 100 100 100 100 100 100 100 100 100 100 100 100 100 100 100 95 69 93 100
79 99 97 100 100 100 100 100 38 36 50 52 42 44 58 56 47 47 56 74 96 75 44 54 94 100 98 100 100 100 100 100 100 100 100 100 100 100 100 84 91 100 99 99
63 92 89 98 100 100 100 100 46 36 49 56 47 45 52 63 67 67 50 52 69 96 87 67 54 80 100 100 100 100 100 100 100 100 100 100 100 100 100 100 100 100 99 84
56 81 83 97 100 100 100 100 83 39 44 56 54 49 52 58 68 74 70 61 60 70 99 97 89 75 83 100 100 100 100 100 100 100 100 100 100 100 100 100 97 98 100 100
51 79 79 86 100 100 100 100 100 50 40 46 55 55 60 58 60 70 81 77 74 73 82 99 100 100 93 86 96 100 99 100 98 100 100 100 100 100 100 100 100 92 86 82
52 74 82 74 97 100 100 100 100 92 42 40 48 58 61 60 58 54 72 77 72 70 87 87 97 100 100 100 100 100 100 100 100 100 100 100 100 100 100 100 100 100 100 100
57 72 80 71 90 100 100 100 100 100 82 42 40 51 62 63 74 59 54 59 69 62 66 82 83 91 100 100 100 100 100 100 100 100 100 100 100 100 100 100 100 100 100 100
52 72 89 78 78 93 100 96 97 95 100 95 48 40 51 63 61 71 66 54 55 57 63 71 67 83 80 93 100 100 100 100 100 100 100 100 100 100 100 100 100 100 100 100
34 74 77 83 78 84 100 97 96 100 100 100 99 54 39 46 61 60 60 61 60 57 58 61 66 68 78 92 91 100 100 100 100 100 100 100 100 100 100 100 100 100 100 100
29 51 80 69 72 86 92 100 92 93 97 100 100 100 64 37 38 51 57 59 63 64 64 64 56 52 59 63 78 95 99 100 100 100 100 100 100 100 100 100 100 100 100 100
31 29 65 84 69 66 81 100 96 96 99 91 91 100 100 91 40 38 39 47 48 59 59 62 64 60 57 55 50 51 66 74 78 91 92 90 93 99 100 100 100 100 100 100
27 29 30 64 93 82 63 72 99 100 95 95 87 91 94 100 100 68 37 38 39 43 44 54 58 64 67 63 60 59 57 63 78 76 79 89 91 85 81 86 85 88 96 100
27 26 28 34 61 93 95 67 68 95 100 100 91 82 86 95 100 100 96 48 35 36 38 43 41 50 58 59 63 68 70 65 63 63 66 68 67 65 66 68 71 67 62 60

GFSNGP_250_rhum_336.txt.gz
RH
19 20 20 18 19 23 26 43 72 66 45 27 25 22 24 24 27 36 51 57 46 58 35 59 70 72 97 93 94 91 92 87 42 27 24 23 19 13 10 8 6 4 3 3
21 20 22 22 24 29 34 68 65 45 29 27 23 24 25 27 35 48 56 51 56 40 70 74 71 97 100 91 95 96 100 84 43 35 22 21 15 10 9 7 5 4 4 3
21 22 24 22 23 45 66 72 60 32 27 28 26 26 25 33 50 56 56 59 50 48 72 79 94 88 78 98 100 100 100 86 65 27 21 18 12 10 8 6 4 4 3 3
20 25 23 23 23 55 82 78 49 28 28 30 30 26 28 43 58 60 58 47 51 77 91 97 92 94 94 99 100 100 100 90 69 29 19 16 12 10 9 5 4 3 3 3
16 19 21 23 24 54 84 66 40 24 31 27 34 28 36 55 59 58 65 49 68 99 89 84 84 77 100 100 100 100 100 100 93 24 18 16 12 10 8 5 4 3 3 3
13 16 19 23 26 64 91 63 33 26 31 31 34 30 46 57 57 60 54 57 86 98 86 78 68 98 100 100 100 96 100 98 92 30 17 16 13 10 8 5 4 4 3 3
13 15 20 24 34 86 90 48 32 30 33 37 33 32 52 55 54 61 49 74 86 90 77 70 82 100 100 100 100 90 85 88 97 65 18 16 14 11 9 7 5 4 3 3
14 16 22 32 61 96 77 36 29 31 35 39 34 41 53 56 61 67 51 78 90 91 74 67 90 94 97 100 100 100 94 78 92 91 20 16 14 12 10 8 6 5 4 3
15 21 35 49 96 93 62 35 32 33 37 44 40 46 54 59 62 71 65 71 87 95 73 61 87 80 100 100 100 100 100 87 77 89 62 16 16 15 12 10 8 7 5 4
20 32 62 84 100 82 40 33 35 35 41 53 44 46 51 66 72 79 65 69 93 96 73 64 76 83 100 100 100 100 100 100 80 95 94 26 16 17 14 12 10 8 7 6
31 54 71 99 93 64 36 42 40 36 36 58 48 46 48 68 88 87 78 75 77 90 93 73 73 66 98 100 100 100 100 100 84 91 94 73 24 18 18 14 12 10 8 7
59 77 96 100 86 41 35 47 46 37 36 46 55 47 46 62 99 96 96 82 77 84 92 79 86 69 74 100 100 100 100 100 100 86 95 89 86 23 19 17 14 13 10 8
70 91 100 100 75 40 33 49 49 41 40 37 55 51 46 55 91 99 100 83 90 91 87 86 90 94 78 69 100 100 100 100 100 94 73 90 88 89 22 19 19 17 14 11
74 99 100 100 79 42 36 48 53 48 50 40 38 64 47 46 71 86 96 98 92 98 76 86 75 81 95 62 80 100 100 100 100 97 91 74 92 80 86 27 20 22 20 17
73 95 96 100 100 40 38 45 55 50 51 50 37 45 70 46 57 87 86 98 92 100 84 85 86 75 69 66 47 88 100 100 95 96 94 85 80 87 77 99 46 19 22 23
67 81 100 100 100 68 42 41 52 53 54 57 50 39 49 72 50 87 99 99 89 99 100 92 100 90 84 61 50 66 100 100 100 88 100 100 99 85 82 78 99 94 32 20
76 79 93 100 100 88 40 42 47 52 54 59 59 54 40 47 72 57 92 100 100 90 91 84 86 100 100 83 66 50 64 86 100 100 86 97 100 100 87 79 78 82 100 93
91 71 70 97 98 88 51 39 44 48 54 57 63 63 74 44 47 69 71 80 95 91 88 85 88 88 98 100 100 77 59 56 66 99 96 96 99 96 100 99 84 87 82 79
54 91 72 73 100 97 86 50 38 45 50 55 59 69 80 75 57 50 66 81 86 84 83 86 91 83 80 98 100 100 92 74 88 83 92 100 90 88 97 100 100 87 83 83
34 45 80 99 85 98 100 84 60 38 46 50 53 62 73 85 84 63 57 69 99 90 90 90 94 94 86 81 91 100 100 100 94 96 100 99 100 96 97 90 99 100 100 100
32 33 36 60 99 100 100 100 89 68 41 44 51 51 63 74 91 96 80 66 76 92 97 96 100 99 92 86 78 78 77 88 99 100 97 100 100 100 95 100 100 100 96 99
36 34 33 34 56 86 100 100 100 96 77 49 44 53 54 64 74 89 100 92 77 87 92 96 100 100 100 98 98 96 82 81 84 80 99 93 98 100 100 100 100 100 100 100
38 38 33 31 33 48 72 91 100 100 100 93 60 42 53 59 66 76 88 96 97 84 84 99 98 100 100 100 100 100 100 99 97 91 78 80 89 79 96 100 100 100 100 100
40 38 36 34 31 32 40 79 88 100 100 99 96 87 43 46 54 63 75 84 91 98 93 88 95 94 98 100 100 100 100 100 100 100 100 91 78 73 72 72 89 100 100 100
38 38 38 36 30 30 30 31 59 83 88 100 100 91 93 60 42 47 56 65 81 89 93 96 88 90 99 100 100 100 100 100 100 100 100 100 100 96 81 78 66 64 71 80
38 36 36 36 31 30 29 28 30 44 87 90 96 97 92 95 83 46 44 52 58 76 82 89 97 98 94 95 100 100 100 100 100 100 100 100 100 100 100 100 99 98 96 97
33 32 32 34 33 30 28 27 27 30 36 75 94 91 95 93 94 91 64 43 43 50 60 74 82 91 92 94 93 97 100 100 99 100 100 100 100 100 100 100 100 100 100 100

GFSNGP_250_rhum_342.txt.gz
RH
14 18 19 21 20 21 21 28 56 54 39 22 26 29 37 46 47 52 67 92 94 100 100 93 96 100 100 100 100 100 83 26 20 19 13 11 9 8 7 6 5 4 3 3
15 16 18 20 21 22 21 31 60 50 25 25 28 32 47 47 52 61 80 100 100 98 96 94 100 100 100 100 100 96 35 20 19 13 11 9 8 6 5 4 3 3 3 3
14 15 17 20 21 24 22 40 53 48 24 30 28 44 50 50 61 83 100 100 95 100 97 100 100 99 100 100 100 52 22 20 15 12 9 7 6 6 4 3 3 3 3 3
12 14 16 19 20 23 23 39 57 31 27 28 36 50 50 53 88 100 100 100 91 80 85 90 87 95 98 100 98 41 21 17 14 11 9 7 6 5 3 3 3 3 2 2
12 12 14 18 21 23 24 42 52 25 29 32 53 57 56 75 100 99 100 84 93 99 80 85 99 96 100 100 93 37 19 19 14 10 9 7 6 3 3 3 3 3 2 2
11 12 15 18 22 24 41 60 31 26 30 46 57 59 64 100 100 91 83 94 100 100 84 92 100 94 100 100 90 36 21 20 14 10 8 7 5 3 3 3 3 3 2 2
10 13 17 21 25 38 75 47 27 32 37 53 60 75 73 100 97 76 98 99 98 100 83 100 100 97 100 100 96 32 21 19 14 11 9 7 4 3 3 3 3 2 2 2
12 16 20 27 40 72 60 28 30 34 47 58 70 80 85 100 79 73 100 100 100 100 94 89 93 94 100 100 100 32 22 18 16 13 9 7 4 3 3 3 3 3 3 3
14 20 31 43 66 68 32 31 37 40 54 58 77 80 78 87 84 71 85 98 99 100 97 98 88 87 100 100 100 40 22 20 20 15 10 8 5 4 4 3 3 3 4 3
22 30 49 71 69 33 34 36 38 45 54 60 85 84 93 77 94 72 68 77 94 100 83 95 96 80 100 100 100 72 23 21 32 24 14 10 7 5 4 5 4 4 4 5
43 55 67 72 39 34 33 42 40 47 52 59 78 81 71 70 80 78 70 75 72 85 86 76 92 86 81 100 100 97 28 22 39 42 28 15 11 8 6 6 6 6 6 6
74 80 75 51 30 34 33 41 42 42 48 58 74 84 71 71 79 82 71 73 71 70 77 84 89 87 73 91 99 100 68 23 32 52 56 44 23 15 12 8 7 7 7 6
83 94 68 48 35 32 33 36 48 42 47 50 71 85 85 59 62 76 86 82 80 59 72 75 91 81 86 75 91 100 100 36 25 47 56 65 60 45 34 22 14 11 9 8
81 82 69 44 37 36 31 33 37 47 46 47 56 82 82 81 69 67 71 68 76 69 66 55 83 74 97 74 92 93 100 87 26 30 50 59 75 74 60 46 47 40 26 18
77 80 88 74 44 36 38 34 33 39 44 51 45 60 88 94 83 76 69 72 66 60 70 58 60 76 88 96 83 98 100 100 76 26 31 45 58 76 87 83 67 65 64 59
91 94 82 81 77 75 44 36 38 35 39 36 54 47 54 95 100 90 81 80 76 60 65 77 61 51 66 90 93 90 100 100 100 77 27 28 39 50 62 87 100 91 82 92
38 78 92 100 97 88 94 76 42 40 37 38 39 43 55 51 96 95 83 74 77 74 72 80 72 63 54 60 65 81 89 100 100 100 96 34 25 31 40 50 61 89 97 90
32 33 43 72 97 97 96 99 94 52 45 43 37 41 47 52 57 91 94 84 83 75 71 68 67 59 84 68 57 68 75 91 100 100 100 100 71 31 27 30 39 50 63 80
34 36 36 36 64 80 87 95 99 98 73 51 44 40 39 53 54 57 67 82 87 83 78 71 68 65 64 90 86 60 61 76 90 100 100 98 100 100 72 33 27 29 36 47
33 33 34 36 37 37 54 73 86 100 100 98 76 50 42 35 41 60 50 59 72 79 89 88 81 72 65 61 91 96 70 53 64 86 100 100 100 98 100 100 64 33 26 28
33 34 33 32 36 37 37 37 38 65 96 100 97 97 80 52 39 34 43 61 51 78 83 88 92 96 81 67 61 77 88 86 57 60 66 82 100 100 97 92 100 100 72 54
36 34 36 34 34 35 35 35 36 36 36 76 100 100 95 92 66 54 40 40 59 54 69 93 98 99 98 88 73 69 70 77 73 79 62 53 64 94 100 100 100 95 100 98
37 37 35 38 38 36 36 34 34 37 36 35 44 85 99 100 99 84 63 53 47 58 62 60 91 99 98 99 95 87 76 73 62 65 79 77 68 61 76 100 100 100 100 100
33 36 36 41 40 36 37 39 34 34 36 38 38 36 58 93 97 98 98 79 60 50 55 69 62 79 94 96 100 100 100 90 73 76 75 76 87 81 80 74 88 100 100 100
34 35 36 35 35 33 36 38 35 36 34 34 35 37 36 40 80 95 96 96 93 67 55 50 62 74 65 83 93 100 100 100 100 88 82 86 80 81 89 94 97 89 85 91
37 34 34 34 32 32 32 31 33 33 31 32 31 31 34 34 34 59 84 92 95 95 84 59 52 50 68 74 69 81 98 100 100 100 98 85 79 75 70 76 86 86 95 98
37 32 29 27 28 27 28 31 30 28 28 29 28 28 30 31 33 34 39 68 83 88 93 92 81 57 52 53 67 74 73 90 97 95 98 100 100 95 90 82 77 75 74 78

GFSNGP_250_rhum_345.txt.gz
RH
14 17 19 19 20 22 21 18 20 40 45 20 28 39 46 48 80 99 84 78 93 84 89 100 99 100 100 100 97 31 22 17 13 10 8 7 6 5 4 3 3 3 3 3
12 16 17 17 19 21 20 18 18 45 29 25 39 46 50 69 92 85 86 100 91 84 99 100 100 100 100 100 39 23 21 16 11 9 7 5 4 3 3 3 3 3 3 3
13 14 14 16 18 20 19 19 19 46 21 30 45 52 56 85 88 90 100 100 90 99 99 82 94 92 97 88 26 24 28 14 10 8 6 4 3 3 3 3 3 2 2 2
10 11 13 15 16 18 19 18 21 40 27 42 55 62 70 88 98 100 100 92 77 93 94 76 86 87 98 76 24 33 25 16 10 7 5 4 4 3 3 3 2 2 2 2
9 11 12 14 16 20 19 20 40 24 31 45 68 70 78 95 100 100 100 100 98 95 84 73 83 96 98 56 26 44 33 22 11 7 5 5 4 4 3 3 3 2 2 2
9 10 13 15 20 22 20 40 33 27 37 54 79 80 83 100 100 100 100 92 100 94 71 70 88 92 98 57 28 52 49 29 15 7 6 5 5 4 4 3 2 2 2 2
8 11 14 20 23 24 29 42 23 33 49 64 74 80 90 100 97 100 100 100 98 97 78 76 81 90 100 67 28 52 57 43 24 9 6 6 5 5 4 4 3 3 3 2
11 14 20 24 27 41 44 24 33 43 53 69 76 80 100 96 93 99 100 98 93 98 79 77 83 94 99 79 27 48 60 58 38 15 7 6 6 5 5 5 4 4 4 3
14 20 26 35 56 35 26 31 39 51 59 70 78 80 100 94 93 90 98 100 92 90 77 78 77 86 91 87 30 45 58 70 51 31 11 7 7 6 5 5 4 4 4 3
20 30 57 52 27 26 29 37 44 56 60 78 79 68 91 86 84 79 81 92 78 79 81 69 77 75 85 90 53 33 51 72 61 42 28 11 8 7 6 5 4 4 4 4
63 57 32 29 28 27 36 38 48 53 60 78 86 77 86 83 86 87 71 75 70 68 81 69 77 74 82 93 87 31 42 58 75 57 45 30 14 9 8 7 6 5 5 5
56 34 29 30 32 33 38 41 45 50 54 73 86 84 67 77 85 84 77 76 58 60 64 73 76 81 84 91 98 54 31 44 63 77 69 48 33 18 10 8 8 8 8 8
60 35 32 33 31 31 35 42 50 47 49 60 90 98 85 67 82 83 87 86 64 53 54 68 76 82 90 92 99 89 35 33 46 70 82 75 51 42 29 14 10 10 11 12
69 66 47 40 38 37 34 34 37 50 48 49 57 85 95 82 73 72 71 69 75 62 53 57 75 93 89 94 87 100 70 30 33 50 73 90 90 63 53 47 28 15 13 14
73 77 78 70 55 40 38 42 37 37 40 53 50 52 83 98 99 89 82 69 64 64 54 55 54 74 84 95 94 94 100 66 29 32 53 72 93 96 84 81 75 57 37 19
34 54 75 83 79 78 82 70 41 43 40 38 41 53 50 76 100 96 94 82 71 66 67 70 57 51 67 84 96 94 100 99 71 31 33 55 76 90 99 90 96 90 75 68
33 32 33 57 79 76 78 77 82 77 45 46 41 40 39 51 66 96 94 94 86 75 72 69 68 59 62 71 82 100 99 100 100 81 32 32 54 81 88 100 100 100 100 100
31 32 32 32 40 57 74 77 80 78 80 74 51 48 42 41 40 51 72 87 88 92 81 68 66 56 61 76 63 74 99 99 100 100 97 37 30 46 71 88 100 93 100 100
33 33 32 32 32 34 39 65 79 76 75 81 85 80 58 53 46 44 44 53 59 78 88 79 73 66 51 63 75 60 67 98 99 100 100 99 47 29 37 51 85 99 95 79
33 35 34 34 33 32 34 36 36 41 70 86 81 83 86 87 67 53 51 52 42 59 65 82 85 78 64 53 60 83 78 62 88 100 100 100 99 73 29 33 40 55 96 98
34 34 33 33 38 36 34 34 36 36 36 36 47 89 89 74 88 92 68 55 52 53 60 76 73 75 76 71 57 55 77 82 65 76 97 100 100 100 92 48 35 50 57 70
39 36 35 35 35 36 37 36 36 34 33 34 35 35 38 82 92 80 82 93 66 51 55 59 82 76 74 81 79 66 56 78 68 74 74 88 98 100 100 100 95 55 46 59
40 34 33 37 40 40 39 39 38 37 35 32 30 32 34 35 42 89 82 72 86 80 58 56 58 78 89 85 84 81 73 66 69 71 65 66 82 95 100 100 100 100 100 85
42 38 37 31 32 36 40 38 37 36 35 35 35 35 32 32 34 35 53 92 73 67 83 66 54 61 69 86 86 83 82 78 75 72 63 64 78 85 83 95 100 100 100 100
41 38 36 32 30 31 32 35 36 35 34 36 34 33 30 32 31 32 32 34 64 92 72 72 77 59 59 63 82 85 87 88 90 87 77 64 66 85 92 94 93 89 98 100
40 41 39 31 28 30 30 30 28 28 28 28 28 30 30 29 27 28 29 29 31 36 75 80 69 76 68 58 61 68 82 85 87 88 90 89 86 77 84 90 95 100 98 91
38 33 30 28 27 28 29 28 27 23 24 24 24 24 25 24 24 26 26 28 29 30 32 53 80 70 70 77 63 62 62 70 85 85 84 86 88 89 85 87 92 100 99 100